Location: *
(38.4303°S, 157.0822°W)
Time: 06:12:08
(UTC+00:00)

DMSP B5D2-2 - Pass Details

Date: 12 August 2024
Orbit: 787 x 802 km, 98.3° (Epoch: 14 September)

Event Time Altitude Azimuth Distance (km) Brightness Sun altitude
Rises 15:09:09 0° 169° (S) 3,346 7.5 -25.4°
Reaches altitude 10° 15:11:31 10° 170° (S) 2,406 6.7 -25.0°
Maximum altitude 15:16:50 80° 254° (WSW) 823 3.9 -23.9°
Enters shadow 15:21:55 11° 341° (NNW) 2,302 6.3 -22.9°
